Inquirer Daily News

Weather

Get conditions and forecasts for any City, State, ZIP code or Country:  
Northeast Philadelphia, PA
on Monday, November 5, 2012

Monday
Previous Day Next Day
Daily Summary
 ActualAverage (KTTN)Record (KTTN)
Temperature
Mean Temperature °F 49°F  
Max Temperature 45°F 59°F 80°F (1961)
Min Temperature 33°F 39°F 23°F (1983)
Degree Days
Heating Degree Days 25 16  
Month to date heating degree days 78  
Since 1 July heating degree days 475  
Cooling Degree Days 0 0  
Month to date cooling degree days 0  
Year to date cooling degree days 965  
Moisture
Dew Point 25°F   
Average Humidity 56    
Maximum Humidity 61    
Minimum Humidity 46    
Precipitation
Precipitation 0.00 in 0.11 in 1.48 in (1939)
Month to date precipitation 0.50  
Year to date precipitation 39.93  
Wind
Wind Speed 11 mph   
Max Wind Speed 14 mph   
Max Gust Speed 24 mph   
Visibility 10 miles   
Events     

Key: T is trace of precipitation, MM is missing value
Source: NWS Daily Summary
Time(EST)TemperatureDew PointHumidity Pressure Visibility Wind DirectionWind SpeedGust SpeedPrecipitationEvents Conditions
12:54 AM 41.0°F 28.0°F 60% 30.03 in 10.0 miles NNW 11.5 mph - N/A   Overcast
1:54 AM 39.9°F 27.0°F 60% 30.03 in 10.0 miles North 12.7 mph - N/A   Overcast
2:54 AM 39.0°F 26.1°F 60% 30.02 in 10.0 miles NNW 12.7 mph - N/A   Overcast
3:54 AM 39.0°F 26.1°F 60% 30.03 in 10.0 miles NNW 11.5 mph - N/A   Overcast
4:54 AM 37.9°F 24.1°F 57% 30.04 in 10.0 miles NNW 10.4 mph - N/A   Overcast
5:54 AM 37.9°F 24.1°F 57% 30.05 in 10.0 miles NNW 12.7 mph - N/A   Overcast
6:54 AM 37.9°F 25.0°F 60% 30.07 in 10.0 miles NNW 9.2 mph - N/A   Overcast
7:54 AM 37.9°F 25.0°F 60% 30.09 in 10.0 miles NW 10.4 mph - N/A   Overcast
8:54 AM 39.0°F 26.1°F 60% 30.09 in 10.0 miles NNW 11.5 mph - N/A   Overcast
9:54 AM 39.9°F 25.0°F 55% 30.10 in 10.0 miles North 9.2 mph - N/A   Overcast
10:54 AM 41.0°F 26.1°F 55% 30.09 in 10.0 miles NNW 9.2 mph - N/A   Overcast
11:54 AM 41.0°F 26.1°F 55% 30.09 in 10.0 miles North 12.7 mph - N/A   Overcast
12:54 PM 43.0°F 26.1°F 51% 30.07 in 10.0 miles North 10.4 mph - N/A   Overcast
1:54 PM 45.0°F 26.1°F 48% 30.05 in 10.0 miles WNW 13.8 mph - N/A   Mostly Cloudy
2:54 PM 45.0°F 25.0°F 46% 30.06 in 10.0 miles NW 11.5 mph 19.6 mph N/A   Partly Cloudy
3:54 PM 43.0°F 25.0°F 49% 30.08 in 10.0 miles NNW 13.8 mph 24.2 mph N/A   Clear
4:54 PM 39.9°F 25.0°F 55% 30.09 in 10.0 miles NNW 9.2 mph - N/A   Clear
5:54 PM 41.0°F 24.1°F 51% 30.12 in 10.0 miles North 13.8 mph - N/A   Overcast
6:54 PM 39.9°F 23.0°F 51% 30.14 in 10.0 miles North 9.2 mph - N/A   Scattered Clouds
7:54 PM 39.9°F 24.1°F 53% 30.16 in 10.0 miles North 5.8 mph - N/A   Overcast
8:54 PM 37.0°F 24.1°F 59% 30.18 in 10.0 miles North 4.6 mph - N/A   Overcast
9:54 PM 35.1°F 23.0°F 61% 30.19 in 10.0 miles NE 8.1 mph - N/A   Mostly Cloudy
10:54 PM 35.1°F 21.0°F 57% 30.20 in 10.0 miles NNE 6.9 mph - N/A   Partly Cloudy
11:54 PM 33.1°F 21.0°F 61% 30.21 in 10.0 miles North 5.8 mph - N/A   Clear
Astronomy
Sunrise:06:34 AM (EST) Moon Rise:10:27 PM (EST)11/5
Sunset:04:52 PM (EST) Moon Set:11:52 AM (EST)11/5
Moon Phase
Nov. 05 Nov. 06 Nov. 13 Nov. 20 Nov. 28

Copyright © 2014 The Weather Underground, Inc.